Back to catalog

STARLINK-31121

AliveCommunicationsVLEO
NORAD 58685·PAYLOAD·🇺🇸 United States

Launched Dec 29, 2023 from Cape Canaveral Space Force Station

Loading…

Next Passes (next 24 hours)

TLE

FreshSource: CelesTrak SupGP

Epoch: Sep 14, 2026, 13:37 UTC

1 58685C 23211U   26257.56784722  .00021857  00000+0  79147-3 0  2574
2 58685  43.0027  98.2233 0001787 264.3647 156.8216 15.27574743    17

Track STARLINK-31121 in real time with AllMySat

Download on the App Store